KF5FGL Weather Reports


Display with metric or nautical units.
time (UTC)temp
F
wind
direction
speed
MPH
gust
MPH
rain 1hr
in
rain 24hr
in
rain mn
in
humidity
%
barometer
mb
20260904053010 83 110 1.0 8.0 0.00 0.00 0.00 80 1011.5
20260904051526 83 138 2.0 7.0 0.00 0.00 0.00 79 1011.5
20260904050029 83 146 2.0 9.0 0.00 0.00 0.00 79 1011.4
20260904044508 83 136 2.0 5.0 0.00 0.00 0.00 77 1011.3
20260904043038 84 166 2.0 9.0 0.00 0.00 0.00 76 1011.2
20260904041511 84 99 4.0 13.0 0.00 0.00 0.00 75 1011.1
20260904040036 85 108 2.0 10.0 0.00 0.00 0.00 74 1011.0
20260904034521 85 120 1.0 7.0 0.00 0.00 0.00 72 1011.0
20260904033020 86 145 3.0 6.0 0.00 0.00 0.00 69 1010.9
20260904031527 87 179 1.0 8.0 0.00 0.00 0.00 68 1010.6
20260904030018 87 160 1.0 7.0 0.00 0.00 0.00 66 1010.3
20260904024505 87 137 3.0 10.0 0.00 0.00 0.00 65 1010.2
20260904023026 87 110 1.0 9.0 0.00 0.00 0.00 64 1010.0
20260904021519 88 137 3.0 7.0 0.00 0.00 0.00 63 1009.8
20260904020004 88 115 3.0 7.0 0.00 0.00 0.00 62 1009.4
20260904014536 88 105 3.0 8.0 0.00 0.00 0.00 60 1009.2
20260904013012 87 115 3.0 8.0 0.00 0.00 0.00 61 1009.2
20260904011600 87 109 3.0 9.0 0.00 0.00 0.00 61 1009.0
20260904010020 87 117 3.0 10.0 0.00 0.00 0.00 61 1008.7
20260904004508 89 104 7.0 16.0 0.00 0.00 0.00 59 1008.6
20260904003031 89 102 5.0 14.0 0.00 0.00 0.00 60 1008.4
20260904001513 91 92 7.0 17.0 0.00 0.00 0.00 55 1008.5
20260904000003 93 73 3.0 11.0 0.00 0.00 0.00 51 1008.0
20260903234537 94 128 6.0 12.0 0.00 0.00 0.00 50 1008.0
20260903233027 94 65 4.0 15.0 0.00 0.00 0.00 50 1007.9
20260903231500 95 106 4.0 15.0 0.00 0.00 0.00 48 1007.7
20260903230029 96 54 2.0 7.0 0.00 0.00 0.00 45 1007.7
20260903224510 96 172 6.0 15.0 0.00 0.00 0.00 46 1007.5
20260903223028 97 101 4.0 16.0 0.00 0.00 0.00 46 1007.5
20260903221516 100 52 4.0 9.0 0.00 0.00 0.00 40 1007.7
20260903220007 100 87 2.0 7.0 0.00 0.00 0.00 40 1007.6
20260903214536 100 136 1.0 8.0 0.00 0.00 0.00 43 1007.6
20260903213010 101 139 2.0 9.0 0.00 0.00 0.00 40 1007.8
20260903211526 99 77 1.0 9.0 0.00 0.00 0.00 42 1007.9
20260903210016 96 102 3.0 9.0 0.00 0.00 0.00 45 1008.2
20260903204501 97 104 1.0 7.0 0.00 0.00 0.00 45 1008.4
20260903203020 98 112 1.0 5.0 0.00 0.00 0.00 45 1008.6
20260903201508 99 3 2.0 6.0 0.00 0.00 0.00 44 1008.8
20260903200027 100 220 1.0 7.0 0.00 0.00 0.00 42 1008.9
20260903194515 98 254 1.0 6.0 0.00 0.00 0.00 45 1009.1
20260903193004 99 136 2.0 5.0 0.00 0.00 0.00 45 1009.2
20260903191527 99 175 3.0 8.0 0.00 0.00 0.00 46 1009.5
20260903190009 99 121 2.0 6.0 0.00 0.00 0.00 42 1009.9
20260903184529 99 193 3.0 8.0 0.00 0.00 0.00 44 1010.1
20260903183014 96 188 1.0 6.0 0.00 0.00 0.00 52 1010.4
20260903181601 96 190 3.0 11.0 0.00 0.00 0.00 50 1010.6
20260903180018 96 223 4.0 10.0 0.00 0.00 0.00 49 1010.8
20260903174506 95 249 2.0 8.0 0.00 0.00 0.00 53 1011.0
20260903173035 94 110 4.0 10.0 0.00 0.00 0.00 54 1011.3
20260903171509 93 127 3.0 9.0 0.00 0.00 0.00 56 1011.5
20260903170031 93 181 2.0 7.0 0.00 0.00 0.00 59 1011.8
20260903164514 92 162 1.0 9.0 0.00 0.00 0.00 62 1011.8
20260903163003 90 141 3.0 9.0 0.00 0.00 0.00 64 1011.9
20260903161505 91 171 1.0 7.0 0.00 0.00 0.00 65 1011.9
20260903160020 90 210 3.0 9.0 0.00 0.00 0.00 66 1012.0
20260903154506 88 250 3.0 9.0 0.00 0.00 0.00 70 1012.0
20260903153023 87 216 4.0 10.0 0.00 0.00 0.00 72 1011.9
20260903151510 87 224 3.0 10.0 0.00 0.00 0.00 74 1012.0
20260903150029 85 252 4.0 9.0 0.00 0.00 0.00 76 1012.0
20260903144515 85 227 5.0 10.0 0.00 0.00 0.00 77 1012.0
20260903143005 85 200 1.0 8.0 0.00 0.00 0.00 77 1012.0
20260903141520 83 191 5.0 11.0 0.00 0.00 0.00 81 1012.1
20260903140021 82 218 4.0 9.0 0.00 0.00 0.00 81 1012.2
20260903134528 82 193 1.0 9.0 0.00 0.00 0.00 82 1012.2
20260903133016 82 187 2.0 9.0 0.00 0.00 0.00 83 1012.3
20260903131508 81 189 1.0 6.0 0.00 0.00 0.00 83 1012.3
20260903130022 80 183 1.0 8.0 0.00 0.00 0.00 84 1012.1
20260903124509 80 258 1.0 8.0 0.00 0.00 0.00 84 1012.0
20260903123030 80 245 0.0 8.0 0.00 0.00 0.00 84 1012.0
20260903121514 80 183 2.0 7.0 0.00 0.00 0.00 84 1011.8
20260903120002 80 138 2.0 6.0 0.00 0.00 0.00 84 1011.8
20260903114523 81 197 2.0 10.0 0.00 0.00 0.00 84 1011.7
20260903113012 80 223 1.0 9.0 0.00 0.00 0.00 84 1011.5
20260903111604 80 197 1.0 10.0 0.00 0.00 0.00 84 1011.4
20260903110020 81 206 4.0 11.0 0.00 0.00 0.00 84 1011.3
20260903104508 81 127 4.0 11.0 0.00 0.00 0.00 83 1011.4
20260903103027 81 177 1.0 7.0 0.00 0.00 0.00 83 1011.5
20260903101516 81 171 4.0 12.0 0.00 0.00 0.00 83 1011.4
20260903100004 82 165 2.0 6.0 0.00 0.00 0.00 83 1011.4
20260903094532 81 221 2.0 6.0 0.00 0.00 0.00 84 1011.4
20260903093018 81 241 1.0 6.0 0.00 0.00 0.00 84 1011.4
20260903091603 82 173 0.0 8.0 0.00 0.00 0.00 83 1011.4
20260903090023 81 161 0.0 5.0 0.00 0.00 0.00 84 1011.6
20260903084511 81 205 1.0 8.0 0.00 0.00 0.00 84 1011.6
20260903083041 81 125 1.0 9.0 0.00 0.00 0.00 84 1011.5
20260903081521 82 214 2.0 9.0 0.00 0.00 0.00 83 1011.3
20260903080008 81 156 0.0 5.0 0.00 0.00 0.00 84 1011.7
20260903074528 81 199 1.0 5.0 0.00 0.00 0.00 83 1011.5
20260903073019 82 191 1.0 7.0 0.00 0.00 0.00 81 1011.6
20260903071505 82 154 1.0 7.0 0.00 0.00 0.00 82 1011.6
20260903070026 81 210 0.0 6.0 0.00 0.00 0.00 83 1011.4
20260903064512 83 154 0.0 3.0 0.00 0.00 0.00 79 1011.7
20260903063004 82 89 0.0 4.0 0.00 0.00 0.00 81 1011.8
20260903061522 83 167 1.0 6.0 0.00 0.00 0.00 78 1011.9
20260903060024 83 124 0.0 5.0 0.00 0.00 0.00 78 1011.9
20260903054532 83 114 1.0 7.0 0.00 0.00 0.00 76 1012.0